Terug naar catalogus

STARLINK-37128

ActiefCommunicatieSSO
NORAD 68385·PAYLOAD·🇺🇸 United States

Gelanceerd Mar 26, 2026 vanaf Vandenberg Space Force Base

Loading…

Volgende Passages (komende 24 uur)

TLE

VersSource: CelesTrak SupGP

Epoch: Sep 14, 2026, 21:27 UTC

1 68385C 26063F   26257.89423611  .00022996  00000+0  71368-3 0  2575
2 68385  97.2858  38.8286 0001252 103.5123  98.0596 15.33435127    13

Volg STARLINK-37128 in realtime met AllMySat

Download on the App Store